Tracking 33750 objects as of 15-Apr-2026
HD Live streaming from Space Station
objects crossing your sky now

STARLINK-34829

Track STARLINK-34829 now!
10-day predictions
STARLINK-34829 is classified as:


NORAD ID: 65470
Int'l Code: 2025-195N
Perigee: 481.5 km
Apogee: 483.2 km
Inclination: 53.2 °
Period: 94.1 minutes
Semi major axis: 6853 km
RCS: Unknown
Launch date: September 3, 2025
Source: United States (US)
Launch site: AIR FORCE EASTERN TEST RANGE (AFETR)
Your satellite tracking list
Your tracking list is empty




NASA's NSSDC Master Catalog

Two Line Element Set (TLE):
1 65470U 25195N   26105.24912261  .00008544  00000-0  30028-3 0  9992
2 65470  53.1575  88.1833 0001294  92.9635 267.1514 15.30199419 35591
Source of the keplerian elements: AFSPC